Change the Weather History Date:

Friday, September 7, 2012

  Actual Average Record
Temperature  
Mean Temperature 78 °F 71 °F  
Max Temperature 88 °F 81 °F 101 °F (1881)
Min Temperature 68 °F 61 °F 45 °F (1962)
Degree Days  
Heating Degree Days 0 0  
Month to date heating degree days 0 0  
Since 1 July heating degree days 0 1  
Cooling Degree Days 13 6  
Month to date cooling degree days 107 50  
Year to date cooling degree days 1478 1060  
Growing Degree Days 28 (Base 50)    
Moisture  
Dew Point 69 °F    
Average Humidity 77    
Maximum Humidity 97    
Minimum Humidity 57    
Precipitation  
Precipitation 0.00 in 0.12 in 3.84 in (1934)
Month to date precipitation 0.81 0.84  
Year to date precipitation 23.28 28.69  
Snow  
Snow 0.00 in 0.00 in - ()
Month to date snowfall 0.0 0.0  
Since 1 July snowfall 0.0 0.0  
Snow Depth 0.00 in    
Sea Level Pressure  
Sea Level Pressure 29.90 in    
Wind  
Wind Speed 3 mph (SSE)    
Max Wind Speed 13 mph    
Max Gust Speed 16 mph    
Visibility 10 miles    
Events      
T = Trace of Precipitation, MM = Missing Value Source: NWS Daily Summary

Daily Weather History Graph

Daily Weather History Graph

Search for Another Location

Airport or City:

Trip Planner

Search our weather history database for the weather conditions in past years. The results will help you decide how hot, cold, wet, or windy it might be!

Date:

Astronomy

Sep. 07, 2012 Rise Set
Actual Time 6:41 AM EDT 7:27 PM EDT
Civil Twilight 6:14 AM EDT 7:54 PM EDT
Nautical Twilight 5:41 AM EDT 8:26 PM EDT
Astronomical Twilight 5:08 AM EDT 8:59 PM EDT
Moon 11:24 PM EDT (9/7) 1:28 PM EDT (9/7)
Length of Visible Light 13h 40m
Length of Day
12h 45m
Waning Gibbous, 58% of the Moon is Illuminated
Sep 7
Waning Gibbous
Sep 8
Last Quarter
Sep 15
New
Sep 22
First Quarter
Sep 29
Full

Hourly Weather History & Observations

Time (EDT) Temp. Heat Index Dew Point Humidity Pressure Visibility Wind Dir Wind Speed Gust Speed Precip Events Conditions
12:54 AM 71.1 °F - 68.0 °F 90% 29.93 in 10.0 mi Calm Calm - N/A   Clear
1:54 AM 70.0 °F - 68.0 °F 93% 29.92 in 10.0 mi Calm Calm - N/A   Clear
2:54 AM 69.1 °F - 68.0 °F 96% 29.91 in 9.0 mi Calm Calm - N/A   Clear
3:54 AM 69.1 °F - 66.9 °F 93% 29.90 in 8.0 mi Calm Calm - N/A   Clear
4:54 AM 69.1 °F - 66.9 °F 93% 29.90 in 8.0 mi Calm Calm - N/A   Clear
5:54 AM 69.1 °F - 66.9 °F 93% 29.90 in 9.0 mi Calm Calm - N/A   Clear
6:54 AM 68.0 °F - 66.0 °F 93% 29.91 in 8.0 mi Calm Calm - N/A   Partly Cloudy
7:54 AM 71.1 °F - 68.0 °F 90% 29.93 in 9.0 mi Calm Calm - N/A   Partly Cloudy
8:54 AM 73.9 °F - 69.1 °F 85% 29.94 in 10.0 mi SW 4.6 mph - N/A   Clear
9:54 AM 78.1 °F - 70.0 °F 76% 29.94 in 10.0 mi Calm Calm - N/A   Clear
10:54 AM 81.0 °F 84.4 °F 70.0 °F 69% 29.94 in 10.0 mi Calm Calm - N/A   Clear
11:54 AM 84.0 °F 88.4 °F 70.0 °F 63% 29.93 in 10.0 mi Calm Calm - N/A   Partly Cloudy
12:54 PM 87.1 °F 92.8 °F 71.1 °F 59% 29.92 in 10.0 mi Calm Calm - N/A   Partly Cloudy
1:54 PM 88.0 °F 93.8 °F 71.1 °F 57% 29.90 in 10.0 mi SE 8.1 mph - N/A   Scattered Clouds
2:54 PM 88.0 °F 93.8 °F 71.1 °F 57% 29.89 in 10.0 mi SE 9.2 mph - N/A   Scattered Clouds
3:54 PM 88.0 °F 93.8 °F 71.1 °F 57% 29.88 in 10.0 mi Variable 6.9 mph - N/A   Scattered Clouds
4:54 PM 86.0 °F 91.5 °F 71.1 °F 61% 29.87 in 10.0 mi SSE 9.2 mph - N/A   Scattered Clouds
5:54 PM 86.0 °F 90.1 °F 69.1 °F 57% 29.87 in 10.0 mi SSE 5.8 mph - N/A   Scattered Clouds
6:54 PM 82.0 °F 86.3 °F 71.1 °F 69% 29.87 in 10.0 mi SSE 8.1 mph - N/A   Scattered Clouds
7:54 PM 79.0 °F - 70.0 °F 74% 29.87 in 10.0 mi SSE 4.6 mph - N/A   Scattered Clouds
8:54 PM 77.0 °F - 70.0 °F 79% 29.88 in 10.0 mi SSE 5.8 mph - N/A   Scattered Clouds
9:54 PM 75.9 °F - 69.1 °F 79% 29.86 in 10.0 mi SSE 5.8 mph - N/A   Partly Cloudy
10:54 PM 75.9 °F - 66.0 °F 71% 29.83 in 10.0 mi Variable 6.9 mph - N/A   Clear
11:54 PM 73.9 °F - 66.0 °F 76% 29.86 in 10.0 mi SW 3.5 mph - N/A   Partly Cloudy